Погода в Мариуполе

Погода в Мариуполе : погода сейчас, прогноз погоды и архив. Всё, что Вы хотите узнать о погоде в Мариуполе!

Поиск расширенной информации на нашем сайте:

Другие новости

Новости СМИ2

Главная страница сайта

Новости сайта

03.07.2017

Напоминаем, что на нашем специализированном сайте Метеоцентр.Азия вы можете получить высокодетализированные автоматические прогнозы погоды по пунктам России, СНГ и мира в авиационном формате (включающие направление и скорость ветра, видимость, явления погоды, количество и форму облачности, нижнюю и верхнюю границу облачности).


Погода в Мариуполе - сегодня

Время (UTC), дата Ветер
(°,м/с) 
Видим.   Явления Облачность Т
(°С)
Тd
(°С)
f(%) Тe
(°С)
Pmin
(гПа)
dP
(гПа)
Po
(мм)
O2
(г/м3)
Тmin Tmax R s Состояние
почвы
06 17.06.18 090 (В) 10  20000 м    10/1 1000 м верхняя 
[Cu med, cong|Cc]
+23.3 +13.5 54 +29  1011.1  0.3  752  277  +21.6        полностью
покрыта
пылью 
09 17.06.18 110 (В) 20000 м    10/0 верхняя 
[Cs]
+25 +15.6 56 +35  1011.2  0.1  752  274         
12 17.06.18 110 (В) 11  20000 м    10/0 верхняя 
[Cs]
+26.1 +14 47 +33  1010.3  -0.8  752  274           
15 17.06.18 110 (В) 20000 м    10/0 верхняя 
[Cc]
+25.8 +14.2 49 +33  1009.8  -0.5  751  274           
18 17.06.18 090 (В) 20000 м    8/0 верхняя 
[Cc]
+24.6 +14.3 53 +32  1010.8  0.9  752  275    +27.4       
21 17.06.18 070 (В) 10 км    4/0 верхняя 
[Cc]
+23.2 +8.1 38 +23  1010.7  -0.1  752  278         
00 18.06.18 070 (В) 10 км    3/0 верхняя 
[Cs]
+20.6 +6 39 +21  1010.4  -0.4  752  281           
03 18.06.18 050 (СВ) 10 км    8/0 верхняя 
[Cc]
+19.2 +6.1 42 +20  1010.6  0.2  752  282           
06 18.06.18 090 (В) 20000 м    6/0 верхняя 
[Cs]
+24.1 +7.6 35 +24  1010.4  -0.1  752  277  +19        мокрая 
09 18.06.18 110 (В) 20000 м    4/0 верхняя 
[Cs]
+26.6 +10.4 36 +28  1010.1  -0.2  752  274         
12 18.06.18 110 (В) 20000 м    3/0 верхняя 
[Cs]
+26.7 +13.3 44 +33  1009.8  -0.3  751  273           
15 18.06.18 140 (ЮВ) 20000 м    4/0 верхняя 
[Cs]
+25.9 +16.1 55 +36  1009.5  -0.3  751  273           
18 18.06.18 050 (СВ) 20000 м    3/0 верхняя 
[Cc]
+26.4 +7.2 29 +26  1009.8  0.3  751  275    +27.6       
21 18.06.18 050 (СВ) 20000 м    ясно 
+24.4 +5.2 29 +24               
00 19.06.18 020 (С) 10 км    ясно 
+21.1 +2.9 30 +21  1011.8  0.8  753  281           
03 19.06.18 020 (С) 10 км    ясно 
+19.8 +4.2 36 +20  1012.3  0.5  753  282           
06 19.06.18 070 (В) 10 км    ясно 
+27.2 +7.6 29 +27  1012.9  0.8  754  275  +19.5         
09 19.06.18 140 (ЮВ) 20000 м    ясно 
+27.1 +14.6 46 +35  1013.2  0.3  754  273           
12 19.06.18 140 (ЮВ) 20000 м    ясно кучево-дожд., верхняя 
[Cb calv|Cs]
+28 +15.8 47 +28  1012.9  -0.3             
15 19.06.18 140 (ЮВ) 20000 м    4/0 верхняя 
[Cs]
+27.3 +14.1 44 +34  1012.3  -0.6  753  273           
18 19.06.18 290 (З) 20000 м    8/0 средняя, верхняя 
[Ac trans|Cs]
+26.4 +6.8 29 +26  1013  0.6  754  276    +29       
21 19.06.18 320 (СЗ) 20000 м    4/0 верхняя 
[Cs]
+21.6 +5.3 35 +22  1013.6  0.5  754  281           
00 20.06.18 340 (С) 20000 м    4/0 верхняя 
[Cs]
+19.8 +5.6 39 +20  1013.7  754  282           
03 20.06.18 340 (С) 10 км    3/0 верхняя 
[Cs]
+19 +7.4 47 +20  1014.6  0.9  755  283           
06 20.06.18 090 (В) 10 км    3/0 верхняя 
[Ci fib]
+28.4 +12.7 38 +33  1015.1  0.8  755  273  +18.1         
Время (UTC), дата Ветер
(°,м/с) 
Видим.   Явления Облачность Т
(°С)
Тd
(°С)
f(%) Тe
(°С)
Pmin
(гПа)
dP
(гПа)
Po
(мм)
O2
(г/м3)
Тmin Tmax R s Состояние
почвы

Для получения пояснительной информации подведите курсор к названию столбца.

ПОГОДА в Мариуполе - архив

Всё, что Вы хотите узнать о погоде в Мариуполе - удобно и подробно!

Выберите нужную дату (начиная с 1 января 2015* года) и нажмите кнопку "Найти".
Будут отображены архивные сводки погоды по пункту Мариуполь, начиная с указанной даты.


Отображать данные в формате CSV (для использования в таблицах Excel)


Внимание! Наш архив погоды предназначен исключительно для личного некоммерческого использования в познавательных целях. Если Вам необходимы официальные справки о состоянии погоды (для производственных, юридических, коммерческих и т.п. целей), обращайтесь в органы Росгидромета.

*Примечание: данная дата относится к архиву по метеостанциям СССР (Россия, СНГ, Балтия).
Архив по метеостанциям Зарубежной Европы и Азии (кроме Китая) хранится 10 дней, по другим регионам земного шара (Китай, Африка, Америка, Австралия, Океания) - 1 день.

Мариуполь - район местоположения метеостанции


Название, широта, долгота, высота метеостанции:
Мариуполь (город) 47°ш. 37.5°д. 70 м над ур. моря [Украина]

Дополнительная информация

В oтличие oт бoльшинства пoгoдных сайтoв мы публикуем пoдрoбную метеoинфoрмацию в детальнoм прoфессиoнальнoм фoрмате.

Характеристики температуры и влажнoсти вoздуха измеряются на высoте 2 м в тени вдали oт зданий и деревьев.
Скoрoсть ветра измеряется на высoте 10 м (на урoвне рoста челoвека скoрoсть ветра ниже в 1.5-2 раза). Если метеoстанция нахoдится в гoрoде или в лесу, тo скoрoсть ветра занижена на 2-4 м/с пo сравнению с oткрытым местoм. Скoрoсть ветра над акватoриями крупных рек и oзёр, а также на вершинах хoлмoв на 2-5 м/с выше, чем в oбычных услoвиях.
Атмoсфернoе давление в разных тoчках местнoсти мoжет значительнo oтличаться oт давления на метеoстанции, в зависимoсти oт услoвий рельефа (при пoдъёме на 10 м давление пoнижается примернo на 1 мм рт.ст.).